[ hide orbit diagram ]
For accurate long-term ephemerides, please instead use our Horizons system.This orbit viewer was implemented using two-body methods, and hence should not be used for determining accurate long-term trajectories (over several years or decades) or planetary encounter circumstances.
[ revert to old Java-based viewer ]
Orbital Elements at Epoch 2458600.5 (2019-Apr-27.0) TDB
Reference: JPL 22 (heliocentric ecliptic J2000)
Element | Value | Uncertainty (1-sigma) | Units |
e | .1065823377180407 | 3.7917e-08 | |
a | 2.213645053108644 | 6.7871e-09 | au |
q | 1.977709588470348 | 8.4583e-08 | au |
i | 5.11494484043361 | 3.7371e-06 | deg |
node | 327.8838577297877 | 4.6666e-05 | deg |
peri | 63.74307741881542 | 5.029e-05 | deg |
M | 56.01421281999985 | 1.7598e-05 | deg |
tp | 2458413.321423128059 (2018-Oct-21.82142313) | 5.8947e-05 | TDB |
period | 1202.985533161668 3.29 | 5.5326e-06 1.515e-08 | d yr |
n | .2992554690610896 | 1.3763e-09 | deg/d |
Q | 2.44958051774694 | 7.5105e-09 | au |
|
| | Orbit Determination Parameters
Additional Information
|
[ show covariance matrix ]
Physical Parameter Table
Parameter |
Symbol |
Value |
Units |
Sigma |
Reference |
Notes |
absolute magnitude |
H |
13.7 |
|
n/a |
MPO350906 |
|
diameter |
diameter |
5.130 |
km |
0.101 |
urn:nasa:pds:neowise_diameters_albedos::2.0[mainbelt] (http://adsabs.harvard.edu/abs/2011ApJ...741...68M) |
|
geometric albedo |
albedo |
0.267 |
|
0.054 |
urn:nasa:pds:neowise_diameters_albedos::2.0[mainbelt] (http://adsabs.harvard.edu/abs/2011ApJ...741...68M) |
|
|
13022 (1988 RL9) Discovered 1988-Sep-01 by Debehogne, H. at La Silla |
Reference: 20000124/Numbers.arc | Last Updated: 2004-04-19 |
|
[ show close-approach data ]
Alternate Designations
1988 RL9 = 1988 PO4 = 1990 DC1 = 1990 EW5 |
|
|